Location: Beetenbrück
(52.8113°N, 9.5946°E)
Time: 21:14:17
(UTC+00:00)

Ariane Rocket - Pass Details

Date: 14 April 2026
Orbit: 755 x 763 km, 98.4° (Epoch: 12 May)

Event Time Altitude Azimuth Distance (km) Brightness Sun altitude
Exits shadow 19:29:40 13° 109° (ESE) 2,069 4.6 -10.5°
Maximum altitude 19:33:07 26° 58° (ENE) 1,455 4.2 -10.9°
Drops below altitude 10° 19:37:15 10° 3° (N) 2,297 5.9 -11.5°
Sets 19:39:52 0° 352° (N) 3,227 6.9 -11.8°
